Location: Asheville, NC
(35.6000°N, 82.5500°W)
Time: 14:27:26

KAITUO 1B - Pass Details

Date: 10 January 2018
Orbit: 500 x 520 km, 97.5° (Epoch: 17 March)

Event Time Altitude Azimuth Distance (km) Brightness Sun altitude
Rises 06:25:05 0° 19° (NNE) 2,620 ? -15.0°
Reaches altitude 10° 06:27:15 10° 26° (NNE) 1,726 ? -14.6°
Maximum altitude 06:30:49 43° 99° (E) 712 ? -13.9°
Drops below altitude 10° 06:34:20 10° 172° (S) 1,703 ? -13.2°
Sets 06:36:28 0° 179° (S) 2,579 ? -12.8°
